Flag for Germany Weather past 2 weeks in Kaiserslautern, Rhineland-Palatinate, Germany

Now
52 °F

Light rain. Mostly cloudy.


Feels Like: 46 °F
Forecast: 41 / 52 °F
Wind: 18 mph from Southwest

Location: Ramstein

Current Time: Dec 18, 2014 at 10:27:05 PM

Latest Report: Dec 18, 2014 at 10:01 PM


Visibility: N/A

Pressure: 30.08 "Hg

Humidity: 88%

Dew point: 48 °F

Location of KaiserslauternLocation

Historic Weather in Kaiserslautern — Graph

°F

Kaiserslautern temperature yesterday

Maximum temperature yesterday: 45 °F (at 11:58 PM)
Minimum temperature yesterday: 37 °F (at 12:58 AM)
Average temperature yesterday: 40 °F

Past Weeks' High & Low Weather Summary

 TemperatureHumidityPressure
High54 °F (Dec 18, 3:58 PM)100% (Dec 4, 12:58 AM)30.46 "Hg (Dec 4, 12:58 AM)
Low30 °F (Dec 8, 5:58 PM)65% (Dec 12, 6:58 PM)29.65 "Hg (Dec 12, 5:58 PM)
Average40 °F91%30.04 "Hg
* Reported Dec 3 8:58 PM — Dec 18 8:58 PM, Kaiserslautern, Weather by CustomWeather, © 2014

Note: Actual official high and low records may vary slightly from our data, if they occured in-between our weather recording intervals... More about our weather records

Advertising

Kaiserslautern weather history for previous 24 hours

 ConditionsComfort  
Time TempWeatherWind HumidityBarometerVisibility
8:58 PM
Dec 18
54 °FMostly cloudy.12 mph82%30.09 "HgN/A
8:03 PM54 °FDrizzle. Mostly cloudy.16 mph94%30.05 "HgN/A
7:00 PM54 °FDrizzle. Overcast.18 mph94%30.04 "HgN/A
6:01 PM54 °FMostly cloudy.18 mph94%30.01 "HgN/A
5:59 PM54 °FOvercast.21 mph94%30.01 "HgN/A
5:58 PM54 °FOvercast.23 mph95%30.03 "HgN/A
4:59 PM54 °FOvercast.15 mph94%30.00 "HgN/A
3:58 PM54 °FOvercast.15 mph91%30.01 "HgN/A
2:58 PM54 °FDrizzle. Overcast.16 mph94%29.98 "HgN/A
1:58 PM53 °FMostly cloudy.16 mph95%29.98 "HgN/A
12:58 PM52 °FLow clouds.13 mph93%29.98 "HgN/A
11:59 AM52 °FLight rain. Overcast.8 mph94%29.96 "HgN/A
10:58 AM50 °FLow clouds.9 mph94%29.98 "HgN/A
9:58 AM50 °FLow clouds.8 mph93%29.97 "HgN/A
9:03 AM48 °FOvercast.12 mph94%29.95 "HgN/A
8:58 AM48 °FLow clouds.8 mph94%29.97 "HgN/A
7:58 AM48 °FMostly cloudy.9 mph95%29.96 "HgN/A
6:58 AM47 °FMostly cloudy.7 mph97%29.97 "HgN/A
5:58 AM46 °FLow clouds.5 mph97%29.96 "HgN/A
4:58 AM46 °FLow clouds.8 mph99%29.97 "HgN/A
3:58 AM46 °FLow clouds.6 mph99%29.97 "HgN/A
2:58 AM46 °FLow clouds.8 mph97%29.98 "HgN/A
1:58 AM46 °FLow clouds.8 mph98%29.97 "HgN/A
12:58 AM45 °FLow clouds.9 mph100%29.96 "HgN/A
11:58 PM
Dec 17
45 °FLow clouds.10 mph100%29.95 "HgN/A
10:58 PM44 °FLow clouds.7 mph99%29.93 "HgN/A
Weather by CustomWeather, © 2014

See weather overviewHow to use our weather pages